CW1172 Weather Reports


Display with metric or nautical units.
time (UTC)temp
F
wind
direction
speed
MPH
gust
MPH
rain 1hr
in
rain 24hr
in
rain mn
in
humidity
%
barometer
mb
20260905060059 54 209 0.0 0.0 0.00 0.00 0.22 94 998.1
20260905054550 54 227 0.0 0.0 0.00 0.00 0.22 94 998.0
20260905053054 53 248 0.0 0.0 0.00 0.00 0.22 94 997.9
20260905051551 53 192 0.0 0.0 0.00 0.00 0.22 94 997.8
20260905050051 52 192 0.0 0.0 0.00 0.00 0.22 93 997.8
20260905044551 51 192 0.0 0.0 0.00 0.00 0.22 93 997.7
20260905043047 51 190 0.0 0.0 0.00 0.00 0.22 93 997.7
20260905041552 52 192 0.0 0.0 0.00 0.00 0.22 93 997.8
20260905040044 52 192 0.0 0.0 0.00 0.00 0.22 93 997.8
20260905034552 53 192 0.0 0.0 0.00 0.00 0.22 93 997.7
20260905033043 53 193 0.0 0.0 0.00 0.00 0.22 93 997.7
20260905031541 53 178 0.0 0.0 0.00 0.00 0.20 93 997.5
20260905030041 53 215 0.0 0.0 0.00 0.00 0.20 93 997.4
20260905024540 53 215 0.0 0.0 0.00 0.00 0.20 93 997.4
20260905023041 53 215 0.0 0.0 0.00 0.00 0.20 93 997.5
20260905021541 53 215 0.0 0.0 0.00 0.00 0.20 93 997.3
20260905020041 53 215 0.0 0.0 0.00 0.00 0.20 93 997.1
20260905014538 53 215 0.0 0.0 0.00 0.00 0.18 93 996.9
20260905013036 53 216 0.0 0.0 0.00 0.00 0.17 93 996.6
20260905011542 54 194 0.0 0.0 0.00 0.00 0.17 92 996.9
20260905010034 54 173 0.0 0.0 0.00 0.00 0.16 92 996.5
20260905004538 54 211 0.0 0.0 0.00 0.00 0.14 92 996.4
20260905003032 55 246 0.0 0.0 0.00 0.00 0.14 92 996.4
20260905001545 55 246 0.0 0.0 0.00 0.00 0.14 92 996.4
20260905000029 55 247 0.0 0.0 0.00 0.00 0.14 92 996.3
20260904234534 55 269 0.0 0.0 0.00 0.00 0.13 92 996.3
20260904233040 55 360 0.0 0.0 0.00 0.00 0.10 92 996.1
20260904231538 55 269 0.0 0.0 0.00 0.00 0.09 92 996.2
20260904230027 55 269 0.0 0.0 0.00 0.00 0.09 92 995.9
20260904224527 55 221 0.0 0.0 0.00 0.00 0.08 92 996.1
20260904223029 55 227 0.0 0.0 0.00 0.00 0.07 92 995.8
20260904221527 55 228 0.0 0.0 0.00 0.00 0.05 92 995.8
20260904220026 55 227 0.0 0.0 0.00 0.00 0.00 91 996.0
20260904214524 55 229 0.0 0.0 0.00 0.00 0.28 91 996.1
20260904213026 54 231 0.0 0.0 0.00 0.00 0.22 91 996.1
20260904211521 53 248 0.0 0.0 0.00 0.00 0.17 90 996.0
20260904210021 53 248 0.0 0.0 0.00 0.00 0.17 90 995.7
20260904204522 53 249 0.0 0.0 0.00 0.00 0.17 89 995.7
20260904203021 53 249 0.0 0.0 0.00 0.00 0.17 89 995.7
20260904201520 53 250 0.0 0.0 0.00 0.00 0.17 88 995.7
20260904200019 54 249 0.0 0.0 0.00 0.00 0.17 88 995.9
20260904194517 54 249 0.0 0.0 0.00 0.00 0.17 87 995.9
20260904193017 55 249 0.0 0.0 0.00 0.00 0.17 87 995.9
20260904191515 55 249 0.0 0.0 0.00 0.00 0.17 86 996.1
20260904190012 56 248 0.0 0.0 0.00 0.00 0.17 85 996.1
20260904184511 56 248 0.0 0.0 0.00 0.00 0.17 84 996.0
20260904183021 57 360 0.0 0.0 0.00 0.00 0.17 84 996.1
20260904181523 57 227 0.0 0.0 0.00 0.00 0.17 83 996.1
20260904180010 57 205 0.0 0.0 0.00 0.00 0.17 82 996.1
20260904174510 58 231 0.0 0.0 0.00 0.00 0.17 81 996.1
20260904173023 58 225 0.0 0.0 0.00 0.00 0.17 79 996.0
20260904171512 59 244 0.0 0.0 0.00 0.00 0.17 78 995.8
20260904170010 59 360 0.0 0.0 0.00 0.00 0.17 76 995.7
20260904164508 60 265 0.0 0.0 0.00 0.00 0.17 75 995.7
20260904163012 61 138 0.0 0.0 0.00 0.00 0.17 73 995.9
20260904161512 63 302 0.0 0.0 0.00 0.00 0.17 69 995.9
20260904160011 63 253 0.0 0.0 0.00 0.00 0.17 72 995.9
20260904154510 63 325 0.0 0.0 0.00 0.00 0.17 73 995.9
20260904153011 63 187 0.0 0.0 0.00 0.00 0.17 71 996.0
20260904151507 63 298 0.0 0.0 0.00 0.00 0.17 70 996.0
20260904150006 63 310 0.0 0.0 0.00 0.00 0.17 71 996.0
20260904144505 64 237 0.0 0.0 0.00 0.00 0.17 68 996.0
20260904143008 64 204 0.0 0.0 0.00 0.00 0.17 69 996.0
20260904141506 63 287 0.0 0.0 0.00 0.00 0.17 70 996.2
20260904140005 63 281 0.0 0.0 0.00 0.00 0.17 73 996.3
20260904134505 62 360 0.0 0.0 0.00 0.00 0.17 73 996.3
20260904133003 62 360 0.0 0.0 0.00 0.00 0.17 75 996.5
20260904131502 62 219 0.0 0.0 0.00 0.00 0.17 75 996.6
20260904130003 63 360 0.0 0.0 0.00 0.00 0.17 75 996.8
20260904124501 63 228 0.0 0.0 0.00 0.00 0.17 74 996.7
20260904123002 64 169 0.0 0.0 0.00 0.00 0.17 74 996.8
20260904121501 64 261 0.0 0.0 0.00 0.00 0.17 74 996.8
20260904120106 63 244 0.0 0.0 0.00 0.00 0.17 74 997.2
20260904114558 63 248 0.0 0.0 0.00 0.00 0.17 73 997.3
20260904113058 62 360 0.0 0.0 0.00 0.00 0.17 74 997.3
20260904111558 62 267 0.0 0.0 0.00 0.00 0.17 73 997.3
20260904110057 63 253 0.0 0.0 0.00 0.00 0.17 74 997.2
20260904104553 62 360 0.0 0.0 0.00 0.00 0.17 78 997.4
20260904103051 61 224 0.0 0.0 0.00 0.00 0.17 80 997.5
20260904101551 60 244 0.0 0.0 0.00 0.00 0.17 79 997.6
20260904100053 60 210 0.0 0.0 0.00 0.00 0.17 79 997.7
20260904094548 60 298 0.0 0.0 0.00 0.00 0.17 81 997.9
20260904093053 60 213 0.0 0.0 0.00 0.00 0.17 80 997.9
20260904091553 60 246 0.0 0.0 0.00 0.00 0.17 82 998.0
20260904090045 60 253 0.0 0.0 0.00 0.00 0.17 83 998.0
20260904084545 60 230 0.0 0.0 0.00 0.00 0.17 84 998.1
20260904083045 60 360 0.0 0.0 0.00 0.00 0.17 86 998.1
20260904081543 59 205 0.0 0.0 0.00 0.00 0.17 87 998.0
20260904080042 59 271 0.0 0.0 0.00 0.00 0.17 88 998.0
20260904074558 58 265 0.0 0.0 0.00 0.00 0.17 89 998.1
20260904073040 58 233 0.0 0.0 0.00 0.00 0.17 89 998.1
20260904071558 57 228 0.0 0.0 0.00 0.00 0.17 91 998.2
20260904070038 57 236 0.0 0.0 0.00 0.00 0.17 91 998.2
20260904064541 57 192 0.0 0.0 0.00 0.00 0.17 91 998.4
20260904063046 57 221 0.0 0.0 0.00 0.00 0.17 92 998.6
20260904061534 56 209 0.0 0.0 0.00 0.00 0.17 92 998.7